[[{"header":{"parameterUnit":"m.s-1","parameterCategory":1,"la1":30.2991,"la2":30.254,"lo1":-89.0895,"lo2":-89.0444,"dy":0.0017,"dx":0.0017,"nx":28,"ny":28,"refTime":"2025-01-13T03:00:00:Z","depth":0,"parameterNumber":2,"parameterNumberName":"U-component_of_WINDS"},"data":[0,0,0,0,0,0,0,0,0,0,0,0,0,0,0,0,0,0,0,0,0,0,0,0,0,0,0,0,0,0,0,0,0,0,0,0,0,0,0,0,0,0,0,0,0,0,0,0,0,0,0,0,0,0,0,0,0,0,-2.2764,-2.2764,0,-2.2784,-2.2784,-2.2784,-2.2729,-2.2727,-2.2726,-2.2724,-2.2744,-2.2746,-2.2748,0,0,0,0,0,0,0,0,0,0,0,0,0,-2.2679,-2.2681,-2.2764,-2.2764,-2.2765,-2.2783,-2.2784,-2.2784,-2.2729,-2.2727,-2.2725,-2.2723,-2.2743,-2.2746,-2.2749,0,0,0,0,0,0,0,0,0,0,0,0,0,-2.2709,-2.2682,-2.2764,-2.274,-2.2738,-2.2783,-2.2784,-2.2784,-2.273,-2.2727,-2.2725,-2.2722,-2.2743,-2.2746,-2.2749,-2.2819,0,0,-2.2759,-2.276,0,0,0,0,0,0,0,0,-2.2708,-2.2712,-2.2743,-2.2741,-2.2739,-2.2751,-2.2761,-2.2796,-2.2731,-2.2733,-2.2724,-2.2721,-2.2749,-2.2751,-2.276,-2.282,-2.2821,-2.2759,-2.2761,-2.2762,-2.2763,0,0,0,0,0,0,0,-2.2706,-2.2711,-2.2772,-2.2743,-2.2741,-2.2728,-2.2729,-2.2767,-2.2755,-2.2732,-2.2728,-2.2732,-2.2747,-2.2757,-2.276,-2.2821,-2.2759,-2.2762,-2.2763,-2.2765,-2.294,-2.2943,0,0,0,0,0,0,-2.2707,-2.271,-2.2771,-2.2772,-2.2717,-2.2731,-2.2733,-2.275,-2.2754,-2.2752,-2.2734,-2.2729,-2.2753,-2.2757,-2.2761,-2.2844,-2.2762,-2.2765,-2.2767,-2.2937,-2.2941,-2.2944,0,0,0,0,0,0,-2.2705,-2.2713,-2.277,-2.274,-2.2746,-2.2735,-2.2755,-2.2752,-2.2762,-2.2755,-2.2753,-2.2747,-2.2751,-2.2756,-2.2805,-2.2844,-2.2766,-2.2769,-2.2934,-2.2938,-2.2942,-2.3011,0,0,0,0,0,0,-2.2703,-2.2712,-2.2739,-2.2741,-2.2748,-2.2815,-2.2757,-2.2754,-2.2768,-2.2762,-2.2767,-2.2765,-2.275,-2.2801,-2.2808,-2.2847,-2.2772,-2.2931,-2.2936,-2.2941,-2.3005,-2.3017,-2.3027,0,0,0,0,0,-2.27,-2.2758,-2.2741,-2.2749,-2.2781,-2.2817,-2.2821,-2.2802,-2.2771,-2.2798,-2.2793,-2.2765,-2.2838,-2.2806,-2.2814,-2.2855,-2.2928,-2.2935,-2.2941,-2.3,-2.3015,-2.3027,0,0,0,0,0,0,-2.2761,-2.2757,-2.2739,-2.2799,-2.2809,-2.2808,-2.2841,-2.2818,-2.2837,-2.2831,-2.2806,-2.2808,-2.2862,-2.2862,-2.2827,-2.2923,-2.2878,-2.2886,-2.2921,-2.2934,-2.2945,-2.2944,-2.2774,0,0,0,0,0,-2.2781,-2.281,-2.2806,-2.2859,-2.2865,-2.2852,-2.2867,-2.2852,-2.2861,-2.2865,-2.2864,-2.2874,-2.2899,-2.2916,-2.2939,-2.3005,-2.3005,-2.3036,-2.3047,-2.3056,-2.3064,-2.3099,-2.3113,-2.2964,-2.2964,-2.2964,0,0,-2.2823,-2.2825,-2.2845,-2.2871,-2.2877,-2.2908,-2.2856,-2.2891,-2.2914,-2.287,-2.2916,-2.2916,-2.2925,-2.2983,-2.3008,-2.2986,-2.3105,-2.3064,-2.3071,-2.3074,-2.3107,-2.3121,-2.3133,-2.2968,-2.2968,-2.2967,0,0,-2.2917,-2.2921,-2.2966,-2.2973,-2.2982,-2.2973,-2.2984,-2.2987,-2.2985,-2.3031,-2.2999,-2.3025,-2.3069,-2.3078,-2.3088,-2.3184,-2.3159,-2.3192,-2.3249,-2.3284,-2.3296,-2.3306,-2.3341,-2.3354,-2.3199,-2.32,-2.32,0,-2.2968,-2.3014,-2.2992,-2.3029,-2.3042,-2.3004,-2.3049,-2.3057,-2.3074,-2.3083,-2.3057,-2.3112,-2.3115,-2.3175,-2.3198,-2.3207,-2.3219,-2.3192,-2.3296,-2.3306,-2.3315,-2.3348,-2.3362,-2.3204,-2.3203,-2.3203,-2.3202,0,-2.3077,-2.3109,-2.3144,-2.3162,-2.3178,-2.3219,-2.3204,-2.3223,-2.3206,-2.32,-2.3247,-2.325,-2.3273,-2.3286,-2.327,-2.3343,-2.3329,-2.33,-2.3254,-2.3334,-2.3365,-2.3377,-2.3209,-2.3208,-2.3207,-2.3206,0,0,-2.321,-2.3215,-2.3228,-2.3236,-2.3243,-2.3267,-2.3307,-2.3329,-2.3347,-2.3359,-2.3392,-2.343,-2.3403,-2.3414,-2.3398,-2.3429,-2.3506,-2.3396,-2.3396,-2.3417,-2.3587,-2.361,-2.3625,-2.3488,-2.3491,-2.3492,-2.3587,0,-2.3303,-2.3371,-2.3353,-2.3421,-2.345,-2.3414,-2.3448,-2.3457,-2.3452,-2.3476,-2.347,-2.3498,-2.346,-2.3467,-2.3495,-2.349,-2.354,-2.3483,-2.3519,-2.3521,-2.3519,-2.3641,-2.3665,-2.3754,-2.3599,-2.3601,-2.3602,0,-2.3421,-2.3438,-2.3509,-2.3512,-2.3524,-2.3555,-2.3574,-2.3598,-2.3606,-2.36,-2.3613,-2.3591,-2.363,-2.3583,-2.3637,-2.3599,-2.3612,-2.3612,-2.3615,-2.3619,-2.3567,-2.3649,-2.3782,-2.3796,-2.3621,-2.3619,-2.3618,0,-2.3512,-2.3553,-2.3601,-2.3608,-2.3612,-2.3635,-2.3638,-2.3644,-2.3659,-2.3675,-2.3685,-2.3706,-2.3718,-2.3734,-2.3718,-2.3686,-2.3775,-2.3726,-2.3772,-2.3772,-2.3793,-2.3792,-2.3931,-2.38,-2.38,-2.3799,-2.3799,0,-2.3618,-2.3664,-2.3642,-2.3672,-2.3721,-2.3699,-2.3749,-2.3747,-2.3753,-2.3782,-2.3751,-2.3779,-2.3755,-2.3781,-2.3769,-2.3815,-2.3821,-2.3817,-2.3814,-2.3821,-2.3822,-2.383,-2.3824,-2.3803,-2.3802,-2.3801,-2.3801,0,-2.3729,-2.3717,-2.3767,-2.3766,-2.3767,-2.3804,-2.3804,-2.3831,-2.3824,-2.3861,-2.3868,-2.3856,-2.3885,-2.387,-2.39,-2.3891,-2.3952,-2.3939,-2.395,-2.3947,-2.3993,-2.3989,-2.4144,-2.4163,-2.4018,-2.402,-2.4021,0,-2.3799,-2.3833,-2.3836,-2.3853,-2.3858,-2.3886,-2.3901,-2.388,-2.3897,-2.3909,-2.3936,-2.3961,-2.3981,-2.4028,-2.4022,-2.4045,-2.4033,-2.4086,-2.4036,-2.4043,-2.4035,-2.4034,-2.4038,-2.4096,-2.4098,-2.4099,-2.41,0,-2.3924,-2.3916,-2.3938,-2.396,-2.3978,-2.3994,-2.4006,-2.4022,-2.4001,-2.4022,-2.4051,-2.4066,-2.4096,-2.4122,-2.4142,-2.4144,-2.412,-2.4116,-2.4127,-2.4136,-2.4141,-2.414,-2.3978,-2.4113,-2.4111,-2.411,-2.411,-2.4109,-2.4017,-2.4045,-2.4052,-2.4079,-2.4086,-2.4099,-2.4125,-2.4121,-2.4144,-2.4167,-2.4153,-2.4187,-2.4195,-2.4218,-2.4224,-2.425,-2.4229,-2.4246,-2.4251,-2.4256,-2.4262,-2.4135,-2.4253,-2.4253,-2.4253,-2.4252,-2.4252,0,-2.4141,-2.4143,-2.4168,-2.4187,-2.4208,-2.4182,-2.4195,-2.4214,-2.4245,-2.4253,-2.4273,-2.4307,-2.4332,-2.4328,-2.4351,-2.4372,-2.4362,-2.4379,-2.4378,-2.4379,-2.4279,-2.4267,-2.4388,-2.4388,-2.4388,-2.4388,-2.4388,-2.4388,-2.4208,-2.4256,-2.4248,-2.4299,-2.4301,-2.4335,-2.4344,-2.4356,-2.4363,-2.4401,-2.4422,-2.4419,-2.4423,-2.4446,-2.4468,-2.4466,-2.4476,-2.4498,-2.4493,-2.44,-2.4386,-2.4373,-2.4362,-2.4501,-2.4501,-2.459,-2.4591,-2.4592]},{"header":{"parameterUnit":"m.s-1","parameterCategory":1,"la1":30.2991,"la2":30.254,"lo1":-89.0895,"lo2":-89.0444,"dy":0.0017,"dx":0.0017,"nx":28,"ny":28,"refTime":"2025-01-13T03:00:00:Z","depth":0,"parameterNumber":3,"parameterNumberName":"V-component_of_WINDS"},"data":[0,0,0,0,0,0,0,0,0,0,0,0,0,0,0,0,0,0,0,0,0,0,0,0,0,0,0,0,0,0,0,0,0,0,0,0,0,0,0,0,0,0,0,0,0,0,0,0,0,0,0,0,0,0,0,0,0,0,-5.7464,-5.7464,0,-5.7487,-5.7487,-5.7487,-5.7408,-5.7406,-5.7403,-5.7401,-5.742,-5.7422,-5.7425,0,0,0,0,0,0,0,0,0,0,0,0,0,-5.7349,-5.7352,-5.7464,-5.7464,-5.7465,-5.7487,-5.7487,-5.7487,-5.7408,-5.7405,-5.7403,-5.74,-5.7419,-5.7422,-5.7425,0,0,0,0,0,0,0,0,0,0,0,0,0,-5.7388,-5.7353,-5.7464,-5.7428,-5.7425,-5.7487,-5.7487,-5.7487,-5.7409,-5.7405,-5.7402,-5.7398,-5.7418,-5.7422,-5.7426,-5.7522,0,0,-5.7438,-5.744,0,0,0,0,0,0,0,0,-5.7386,-5.7392,-5.7433,-5.7431,-5.7427,-5.7441,-5.7453,-5.7499,-5.741,-5.7415,-5.7401,-5.7397,-5.7429,-5.7432,-5.7444,-5.7523,-5.7523,-5.7439,-5.7441,-5.7443,-5.7444,0,0,0,0,0,0,0,-5.7383,-5.7391,-5.7473,-5.7434,-5.743,-5.741,-5.7411,-5.7461,-5.7442,-5.7414,-5.7409,-5.7413,-5.7427,-5.744,-5.7444,-5.7524,-5.7438,-5.7442,-5.7445,-5.7446,-5.7683,-5.7687,0,0,0,0,0,0,-5.7386,-5.7389,-5.7472,-5.7474,-5.7398,-5.7415,-5.7416,-5.744,-5.7441,-5.7438,-5.7416,-5.7409,-5.7435,-5.7439,-5.7444,-5.7558,-5.7443,-5.7447,-5.7449,-5.7679,-5.7684,-5.7688,0,0,0,0,0,0,-5.7384,-5.7394,-5.7471,-5.743,-5.7438,-5.742,-5.7448,-5.7442,-5.7456,-5.7442,-5.7438,-5.7433,-5.7433,-5.7439,-5.7504,-5.7557,-5.7448,-5.7452,-5.7675,-5.7681,-5.7686,-5.7785,0,0,0,0,0,0,-5.7381,-5.7394,-5.7431,-5.7431,-5.7441,-5.7532,-5.7451,-5.7445,-5.7463,-5.7455,-5.7457,-5.7454,-5.743,-5.7498,-5.7508,-5.7561,-5.7455,-5.767,-5.7677,-5.7684,-5.7777,-5.7793,-5.7808,0,0,0,0,0,-5.7377,-5.7457,-5.7433,-5.7444,-5.7487,-5.7535,-5.754,-5.7512,-5.7468,-5.7505,-5.7496,-5.7454,-5.755,-5.7505,-5.7516,-5.7571,-5.7666,-5.7675,-5.7684,-5.777,-5.779,-5.7807,0,0,0,0,0,0,-5.7461,-5.7456,-5.743,-5.7512,-5.7525,-5.7521,-5.7567,-5.7534,-5.7558,-5.7549,-5.7512,-5.7513,-5.7585,-5.7584,-5.7535,-5.7664,-5.76,-5.7611,-5.7662,-5.7681,-5.7697,-5.7696,-5.7459,0,0,0,0,0,-5.7489,-5.753,-5.7523,-5.7596,-5.7604,-5.7585,-5.7604,-5.7582,-5.7593,-5.7597,-5.7593,-5.7604,-5.7637,-5.7659,-5.7688,-5.7776,-5.7776,-5.7819,-5.7834,-5.7847,-5.7857,-5.7905,-5.7924,-5.7717,-5.7716,-5.7716,0,0,-5.7548,-5.755,-5.7578,-5.7613,-5.762,-5.7662,-5.7589,-5.7636,-5.7667,-5.7604,-5.7666,-5.7663,-5.7673,-5.7751,-5.7784,-5.7752,-5.7915,-5.7858,-5.7868,-5.7872,-5.7916,-5.7936,-5.7953,-5.7722,-5.7721,-5.772,0,0,-5.7676,-5.7682,-5.7744,-5.7754,-5.7766,-5.7753,-5.7768,-5.777,-5.7766,-5.7828,-5.7782,-5.7817,-5.7874,-5.7883,-5.7895,-5.8029,-5.7991,-5.8039,-5.812,-5.8166,-5.8183,-5.8197,-5.8246,-5.8264,-5.8049,-5.8049,-5.805,0,-5.7747,-5.781,-5.778,-5.7832,-5.7849,-5.7795,-5.7858,-5.7867,-5.7888,-5.79,-5.7864,-5.7935,-5.7938,-5.8017,-5.805,-5.8062,-5.8078,-5.8039,-5.8183,-5.8197,-5.821,-5.8256,-5.8274,-5.8055,-5.8055,-5.8054,-5.8053,0,-5.7897,-5.7941,-5.799,-5.8014,-5.8036,-5.8093,-5.8071,-5.8097,-5.8073,-5.8063,-5.8127,-5.8128,-5.8158,-5.8175,-5.8151,-5.8251,-5.8231,-5.819,-5.8125,-5.8236,-5.8279,-5.8296,-5.8064,-5.8061,-5.806,-5.8058,0,0,-5.8078,-5.8086,-5.8105,-5.8115,-5.8126,-5.8159,-5.8213,-5.8243,-5.8267,-5.8282,-5.8327,-5.8377,-5.8339,-5.8353,-5.833,-5.8371,-5.8478,-5.8324,-5.8324,-5.8354,-5.859,-5.8622,-5.8642,-5.8453,-5.8456,-5.8459,-5.8589,0,-5.8205,-5.83,-5.8276,-5.8369,-5.841,-5.836,-5.8407,-5.8419,-5.8411,-5.8444,-5.8435,-5.8471,-5.8418,-5.8427,-5.8465,-5.8457,-5.8525,-5.8447,-5.8494,-5.8496,-5.8494,-5.8664,-5.8698,-5.8821,-5.8605,-5.8608,-5.861,0,-5.8366,-5.8391,-5.849,-5.8495,-5.8511,-5.8555,-5.8581,-5.8613,-5.8624,-5.8616,-5.8633,-5.8601,-5.8654,-5.8589,-5.8661,-5.8608,-5.8626,-5.8625,-5.8629,-5.8633,-5.856,-5.8674,-5.8859,-5.8879,-5.8636,-5.8634,-5.8632,0,-5.849,-5.8548,-5.8615,-5.8626,-5.8633,-5.8665,-5.8669,-5.8677,-5.8697,-5.8719,-5.8732,-5.876,-5.8775,-5.8797,-5.8773,-5.8728,-5.8849,-5.8782,-5.8844,-5.8845,-5.8872,-5.8871,-5.9065,-5.8882,-5.8882,-5.8882,-5.8881,0,-5.8636,-5.8698,-5.8672,-5.8713,-5.8782,-5.8752,-5.882,-5.8818,-5.8826,-5.8866,-5.8823,-5.886,-5.8827,-5.8862,-5.8843,-5.8906,-5.8913,-5.8908,-5.8902,-5.8912,-5.8913,-5.8924,-5.8915,-5.8887,-5.8886,-5.8885,-5.8884,0,-5.8786,-5.8771,-5.8841,-5.8842,-5.8844,-5.8895,-5.8896,-5.8934,-5.8923,-5.8974,-5.8984,-5.8968,-5.9006,-5.8985,-5.9024,-5.9012,-5.9094,-5.9076,-5.9091,-5.9087,-5.9151,-5.9145,-5.9358,-5.9385,-5.9185,-5.9187,-5.9189,0,-5.888,-5.8928,-5.8935,-5.896,-5.8968,-5.9007,-5.9028,-5.9001,-5.9024,-5.9041,-5.9077,-5.9112,-5.9139,-5.9203,-5.9194,-5.9223,-5.9207,-5.9279,-5.9211,-5.922,-5.9209,-5.9207,-5.9212,-5.9293,-5.9296,-5.9297,-5.9299,0,-5.9049,-5.904,-5.9073,-5.9104,-5.9131,-5.9153,-5.9172,-5.9194,-5.9167,-5.9195,-5.9235,-5.9256,-5.9297,-5.9333,-5.9358,-5.9361,-5.9326,-5.9321,-5.9337,-5.9348,-5.9355,-5.9353,-5.913,-5.9316,-5.9314,-5.9313,-5.9312,-5.9311,-5.9175,-5.9216,-5.9228,-5.9267,-5.9278,-5.9297,-5.9333,-5.9329,-5.9362,-5.9395,-5.9376,-5.9423,-5.9433,-5.9464,-5.9472,-5.9508,-5.9478,-5.9501,-5.9507,-5.9514,-5.9523,-5.9349,-5.9512,-5.9511,-5.9511,-5.951,-5.951,0,-5.9343,-5.9349,-5.9385,-5.9414,-5.9444,-5.941,-5.9429,-5.9456,-5.9499,-5.9512,-5.954,-5.9586,-5.9621,-5.9615,-5.9646,-5.9676,-5.9661,-5.9685,-5.9683,-5.9685,-5.9547,-5.953,-5.9697,-5.9697,-5.9697,-5.9697,-5.9697,-5.9697,-5.9434,-5.9502,-5.9494,-5.9566,-5.9571,-5.9619,-5.9633,-5.9649,-5.966,-5.9715,-5.9744,-5.974,-5.9746,-5.9778,-5.9808,-5.9805,-5.9819,-5.985,-5.9841,-5.9713,-5.9694,-5.9676,-5.9661,-5.9853,-5.9853,-5.9976,-5.9977,-5.9978]}]]